RH
11 8 6 6 8 15 18 21 12 16 38 43 27 23 25 32 41 44 30 24 26 28 30 45 42 78 55 89 83 46 45 44 55 87 95 84 76 97 91 79 77 79 98 93 97 90 86
10 10 7 6 7 15 20 21 17 17 43 41 26 26 32 39 49 49 40 32 34 37 38 59 47 67 54 44 53 51 44 42 56 75 94 92 83 95 100 68 82 82 96 94 94 92 99
14 7 7 7 7 15 21 22 22 23 43 52 20 30 33 40 53 52 53 40 45 46 46 59 75 64 52 49 41 37 25 52 63 98 88 99 97 98 79 73 79 99 84 92 90 92 99
12 7 6 6 7 11 23 23 24 22 30 57 16 30 36 42 52 59 64 46 50 51 52 73 70 60 53 52 50 44 31 46 60 95 93 98 96 96 73 72 76 85 85 87 87 89 95
25 13 9 6 7 10 19 26 28 26 26 45 31 20 37 44 51 63 65 55 62 64 59 70 79 70 73 72 59 46 42 45 65 92 94 85 99 98 75 62 82 90 91 87 91 98 89
34 24 9 8 7 9 15 24 30 30 27 30 52 15 35 48 53 63 68 66 73 68 66 72 80 76 77 84 72 72 45 45 57 98 99 98 98 98 74 67 92 87 83 96 87 94 99
58 19 7 8 8 8 14 22 30 32 31 27 47 17 35 48 54 57 72 68 78 72 58 72 90 94 93 90 80 87 46 46 92 98 98 89 98 99 73 72 70 65 83 84 83 77 80
23 17 6 7 8 8 13 21 31 34 32 29 31 30 31 48 47 50 70 74 74 87 84 71 70 87 99 97 98 94 64 80 84 99 98 98 96 94 88 89 78 77 80 83 82 85 83
80 19 5 6 7 7 11 18 31 34 33 32 30 39 21 46 41 48 64 78 79 80 97 97 88 94 87 95 96 97 100 94 83 99 75 90 95 95 93 98 76 91 74 86 82 85 81
73 21 5 5 6 6 10 14 22 28 35 35 35 32 31 35 42 44 62 70 80 80 90 99 99 98 95 94 98 81 86 93 98 99 78 75 98 89 88 91 87 88 81 60 60 69 90
41 6 4 4 5 5 8 9 16 26 38 39 38 37 29 28 43 42 60 70 79 78 85 82 93 93 94 97 100 98 78 86 97 100 90 96 89 88 88 79 88 83 74 73 69 78 79
14 4 4 3 4 4 6 8 12 17 33 37 36 35 29 34 43 45 53 65 85 74 91 81 92 97 99 100 95 97 81 79 88 92 98 99 93 85 90 80 81 83 86 89 86 87 85
30 4 4 3 3 4 4 6 10 13 23 36 34 32 29 32 38 45 43 53 78 83 83 92 97 98 99 99 100 95 88 81 92 97 99 100 92 91 93 95 97 78 87 89 87 89 87
99 5 4 3 3 3 3 4 7 10 12 23 25 31 33 30 38 44 43 47 72 87 100 94 98 96 99 99 100 99 96 99 88 84 98 98 98 98 94 88 89 83 74 69 89 92 82
76 5 3 3 2 2 2 3 5 9 14 17 22 32 37 31 40 41 48 51 76 77 91 93 93 85 97 99 100 100 89 99 97 88 83 86 99 94 100 98 80 72 79 70 64 78 74
67 8 3 3 2 2 2 3 4 9 14 18 25 33 36 34 39 42 51 49 69 80 81 84 91 90 93 99 96 94 98 89 96 88 73 77 97 92 95 94 88 80 77 77 75 80 76
80 11 3 3 2 2 2 4 5 7 12 18 25 33 34 37 39 48 57 56 79 81 82 81 90 95 97 91 90 86 87 95 88 82 72 70 73 99 92 99 92 95 92 84 75 73 74
95 16 3 3 2 2 3 4 6 6 9 16 20 31 33 38 41 52 64 74 80 82 80 82 89 91 96 89 85 78 77 82 80 74 70 67 72 94 94 96 97 96 84 76 80 84 83
98 8 3 2 2 2 4 5 6 7 10 14 18 24 33 38 41 53 70 72 72 74 81 87 85 80 86 86 84 84 82 80 82 81 75 71 87 98 97 99 98 94 81 82 82 89 89
79 4 3 2 2 3 4 5 7 8 9 16 21 26 30 36 41 48 73 76 75 76 71 82 85 86 84 80 86 87 89 86 88 87 90 84 75 70 69 73 70 73 61 69 83 94 88
56 3 3 2 2 3 4 4 5 5 9 17 19 24 30 30 40 49 61 77 83 86 81 73 72 85 89 87 87 84 87 88 98 97 98 94 87 79 79 78 76 76 72 74 93 95 97
42 3 3 3 3 3 3 4 4 4 4 8 10 22 27 35 39 44 57 74 90 92 88 86 77 79 83 90 86 77 78 81 92 93 98 98 93 83 77 75 78 80 76 74 80 91 100
33 3 3 2 3 3 3 4 4 4 4 5 8 13 25 31 39 42 50 64 81 92 95 91 87 84 84 93 88 80 77 76 85 91 91 97 96 88 82 75 72 65 49 51 57 58 64
14 3 3 2 3 3 4 4 4 4 3 6 11 16 22 26 35 41 48 58 62 78 99 100 98 92 92 91 91 84 82 84 83 87 91 88 94 96 84 82 86 53 54 50 48 46 54
24 3 3 3 3 3 4 4 4 3 3 8 14 22 26 28 31 39 46 56 62 74 99 97 97 90 94 95 95 94 88 87 87 86 82 82 84 82 81 84 66 48 50 60 58 54 58
60 5 3 3 3 3 3 4 4 2 3 7 12 21 28 30 32 36 45 51 57 62 81 96 91 98 96 95 96 96 84 84 83 85 81 82 88 90 91 90 88 60 79 77 76 76 82
80 4 3 3 3 3 3 4 3 2 3 6 10 20 26 30 35 38 41 51 56 59 69 61 93 96 97 95 98 94 88 82 78 81 80 94 99 97 95 87 70 63 64 63 66 72 78
92 6 3 3 3 3 3 4 3 3 3 5 10 18 26 31 36 43 47 49 53 57 59 71 64 85 100 99 99 92 84 80 84 81 81 80 85 88 96 96 86 64 71 69 74 75 76
21 8 4 4 4 3 3 4 4 3 4 4 7 16 28 32 40 47 52 54 53 57 61 72 81 88 88 96 96 94 84 85 84 88 86 84 77 75 71 65 62 63 70 75 78 77 79
Wind_Speed
23 24 25 26 28 27 29 31 31 23 23 22 21 22 21 21 19 21 21 18 18 20 22 19 12 4 3 2 9 7 9 16 24 33 28 34 33 31 31 33 33 38 24 34 30 32 38
24 23 25 26 27 25 28 30 31 23 24 22 21 21 20 22 20 19 21 19 19 19 17 16 11 7 3 6 11 13 7 18 28 35 32 35 36 29 27 34 30 32 26 30 37 34 36
23 24 25 25 26 25 26 29 30 26 26 22 21 22 21 23 20 17 20 19 18 17 13 14 11 9 6 6 8 12 15 16 32 35 36 36 29 33 26 25 29 11 32 27 26 34 42
22 24 24 24 25 26 25 26 27 27 25 24 22 22 23 21 20 16 18 18 16 14 11 10 10 7 4 3 5 11 14 15 35 36 37 35 29 29 24 22 27 18 21 24 21 25 30
21 25 25 24 24 26 25 26 27 27 26 26 22 21 23 21 19 15 14 16 14 14 12 8 9 4 2 2 2 8 15 16 26 30 34 40 22 26 26 26 28 22 21 28 23 21 24
25 24 24 24 23 24 25 26 25 27 27 27 22 21 22 21 19 15 10 12 13 13 11 8 6 3 2 3 6 6 13 17 24 22 33 36 24 29 28 32 36 32 24 27 23 27 27
20 24 22 24 23 23 24 25 25 25 27 29 24 21 22 21 18 16 8 8 12 12 11 9 4 2 2 4 3 6 14 19 18 22 30 45 23 37 34 34 9 28 22 23 21 18 21
21 22 22 23 22 22 24 25 25 25 25 26 25 22 21 22 18 16 9 4 5 9 11 11 6 2 2 11 11 6 16 16 22 20 35 26 19 34 29 26 12 25 26 21 17 13 13
25 23 21 22 22 22 24 25 24 25 23 23 25 22 20 21 18 14 11 5 4 7 9 7 5 5 4 7 7 14 21 16 23 25 29 35 14 27 24 25 13 23 28 23 18 14 10
31 24 21 20 21 21 23 25 25 25 22 22 22 23 21 20 17 14 10 8 5 3 3 12 16 7 14 14 9 18 14 19 12 18 26 30 4 27 22 25 10 16 18 19 18 16 10
26 19 20 20 20 21 22 25 26 25 22 21 22 23 21 19 17 14 9 8 4 4 4 8 12 10 4 13 15 19 18 5 12 22 14 15 21 23 22 23 12 9 16 17 14 14 12
19 19 19 20 20 21 22 23 26 26 23 21 21 20 20 17 15 14 11 9 4 1 2 4 6 8 11 10 19 18 11 8 8 18 12 27 28 22 20 19 15 12 17 16 13 11 6
21 21 19 19 20 21 23 22 25 26 24 20 20 21 16 15 14 13 12 9 2 4 5 4 6 7 8 11 15 9 7 14 13 11 20 24 26 18 24 22 15 17 21 5 3 3 4
29 22 20 18 20 21 22 21 23 24 25 21 18 17 15 13 12 12 10 5 2 3 4 7 7 7 7 9 12 9 10 13 17 15 28 12 15 18 26 22 14 16 18 6 6 5 3
26 20 20 17 19 21 21 20 21 20 20 18 16 16 14 11 12 11 8 2 2 4 6 9 8 5 5 3 7 10 9 7 20 27 5 10 8 20 22 23 18 22 16 6 4 3 1
24 19 19 17 17 21 20 18 18 17 16 17 17 15 11 11 11 10 6 3 2 5 4 1 2 3 5 7 8 10 8 17 23 17 10 13 11 21 19 22 21 18 22 8 3 1 3
22 20 18 16 16 20 17 15 14 15 14 14 16 15 11 10 8 8 4 2 5 6 4 2 1 2 4 13 9 11 4 11 24 12 6 15 9 16 21 18 20 18 20 11 6 4 2
21 20 18 16 15 18 13 11 11 12 11 12 15 12 13 8 7 7 2 3 4 4 2 2 4 5 3 6 11 6 5 7 18 13 6 10 7 14 18 15 24 23 22 22 10 5 8
22 20 17 15 15 14 9 7 7 8 9 11 13 13 9 7 3 4 1 3 3 3 3 4 6 6 2 2 3 5 5 8 16 14 7 9 6 9 6 13 18 24 31 30 27 16 14
22 19 16 14 14 10 3 4 6 7 9 10 11 8 10 7 3 4 4 4 4 3 2 4 6 8 5 6 2 1 4 7 9 15 11 11 9 4 10 4 12 25 26 29 32 22 22
22 18 16 14 14 8 3 3 6 9 10 10 10 10 10 8 6 5 7 5 7 5 4 3 3 8 11 7 6 2 2 5 9 14 12 7 6 7 6 7 7 8 12 13 26 36 25
23 19 17 15 14 8 5 2 5 9 12 12 12 12 10 9 6 6 7 9 8 8 6 5 4 5 8 9 7 3 4 5 6 14 12 12 5 5 3 6 10 14 14 15 16 21 35
25 20 19 16 16 10 5 2 6 10 13 13 13 10 7 6 5 5 7 9 9 10 7 8 8 8 6 8 7 5 4 4 4 8 12 13 8 3 3 6 8 12 15 18 24 26 23
25 21 20 18 17 11 5 1 7 12 15 16 12 10 6 4 4 5 6 8 11 13 12 9 6 6 9 10 9 6 6 5 6 7 8 6 5 7 6 6 1 7 9 8 12 14 16
25 24 23 20 17 12 6 2 8 12 16 16 16 14 11 6 5 5 5 8 10 13 13 13 9 8 9 13 11 7 8 6 10 10 10 10 10 5 4 7 12 19 16 10 11 13 10
31 28 26 22 18 13 7 2 8 13 17 17 18 18 15 8 5 6 6 6 7 11 15 17 14 8 8 12 13 8 6 5 5 5 17 15 13 10 6 2 4 2 3 6 8 4 1
33 31 28 25 20 14 7 3 8 13 18 19 19 21 18 11 12 6 4 5 6 7 9 12 16 15 11 10 8 6 7 7 5 5 6 14 15 16 13 9 10 12 13 9 5 2 10
35 32 30 27 22 15 9 2 7 12 18 21 22 22 20 18 17 12 8 4 3 5 6 7 10 17 12 11 9 9 8 9 9 7 4 8 10 9 11 9 10 3 2 3 2 8 9
39 35 32 29 22 16 10 3 4 9 15 20 22 22 20 21 20 17 11 7 5 1 4 7 7 6 13 8 10 8 7 6 10 5 11 8 10 4 8 3 3 5 2 9 11 12 10
Wind_Direction
344 342 351 352 349 354 352 353 353 350 346 343 347 348 349 337 347 342 333 317 315 322 327 333 325 337 332 155 189 171 201 204 196 189 188 194 194 193 201 194 201 206 214 211 210 214 220
340 343 348 349 347 350 351 353 353 350 345 344 344 345 349 343 348 344 337 330 322 325 328 333 323 292 285 212 214 214 194 189 190 194 187 190 192 195 192 195 198 210 199 215 208 215 208
339 339 346 347 344 346 350 352 353 350 346 343 343 341 343 343 350 345 343 337 331 330 326 330 323 307 285 246 222 219 213 200 190 187 195 193 187 194 199 193 195 196 205 212 220 220 228
344 339 345 344 342 343 347 350 350 351 345 344 341 341 340 341 349 345 350 345 343 337 330 346 337 327 305 272 223 215 210 208 197 203 186 179 187 190 189 187 188 192 190 196 210 211 221
341 336 339 340 341 340 344 346 345 350 348 344 341 341 337 341 347 347 354 356 353 350 352 344 342 345 20 78 188 206 204 209 202 195 177 188 184 179 183 182 179 189 188 197 201 207 220
333 333 332 335 339 336 339 339 341 345 348 344 342 341 336 340 347 348 357 3 360 6 7 6 9 24 65 100 139 184 196 207 203 177 181 186 191 168 181 178 185 187 192 192 194 202 214
319 325 329 331 335 334 334 335 336 340 343 345 346 343 336 342 345 348 356 10 12 31 26 20 356 109 106 156 161 173 182 194 181 183 178 193 198 174 182 184 201 194 189 189 202 216 220
319 328 327 326 330 332 328 330 335 337 338 343 350 345 336 345 349 351 354 341 6 28 46 40 16 44 62 53 122 147 177 176 200 184 199 178 198 177 180 179 198 193 188 187 196 206 222
310 323 322 321 326 328 324 327 331 333 335 341 349 346 336 345 351 355 359 350 323 308 339 41 33 59 45 93 106 109 147 167 188 189 195 196 188 169 175 180 185 187 192 183 187 192 207
309 316 317 316 321 324 323 324 327 329 331 333 340 347 338 341 348 351 3 358 353 259 32 14 9 52 106 91 96 111 124 180 122 165 178 198 179 169 175 181 176 178 193 211 214 202 192
301 307 314 312 317 322 321 324 325 329 332 327 330 336 339 337 343 347 6 3 29 72 62 12 30 80 76 105 106 118 105 112 121 127 140 185 197 169 176 182 162 159 180 190 201 201 203
303 311 310 309 313 319 320 325 324 328 331 327 328 336 333 331 338 344 350 5 6 95 63 77 60 42 77 110 123 125 125 69 161 141 112 152 167 172 163 169 183 170 149 171 179 193 240
309 308 306 306 309 316 319 326 324 328 331 326 327 333 332 325 332 347 336 358 353 68 134 110 64 82 96 116 128 134 152 152 153 164 120 148 164 172 169 165 157 166 162 110 163 205 228
281 297 300 301 307 314 318 326 325 330 330 327 328 333 330 320 325 342 331 3 31 79 139 105 108 90 105 122 129 141 134 144 173 158 141 136 159 168 185 185 179 171 178 158 181 192 214
281 290 295 296 304 312 318 325 326 330 332 332 330 332 328 316 320 338 328 16 124 125 109 118 113 140 119 58 137 151 145 148 147 152 141 135 125 175 178 193 191 189 206 193 108 109 192
285 287 290 290 303 310 317 325 323 325 324 323 329 331 325 316 320 330 324 286 188 150 143 108 101 123 173 158 139 139 136 147 151 156 158 156 128 182 182 190 202 200 201 203 210 129 252
286 283 284 285 300 307 317 324 326 322 319 316 325 330 330 326 325 320 306 262 157 155 137 107 67 110 168 149 144 148 153 172 172 177 175 176 164 169 191 198 203 190 199 198 198 218 183
278 278 278 279 295 304 316 321 331 329 315 318 314 323 331 327 326 319 355 162 151 159 160 127 116 117 105 154 169 166 155 176 172 169 149 165 154 167 196 208 211 214 220 218 222 215 224
267 266 266 272 287 299 310 326 342 338 328 314 316 314 319 323 316 303 203 156 159 136 153 168 150 159 125 148 129 173 179 183 195 207 212 189 153 125 188 233 218 221 225 229 229 233 234
260 255 252 263 277 282 291 352 8 2 332 325 326 314 317 309 299 249 218 199 188 180 174 184 191 178 175 189 243 171 210 188 197 196 198 192 184 180 187 179 206 221 236 239 237 236 239
252 246 239 251 263 248 256 14 7 11 347 329 325 318 308 295 295 243 232 223 207 200 205 179 214 207 204 207 238 276 196 211 195 189 190 193 197 207 225 231 239 239 249 251 233 236 236
244 239 229 240 244 233 248 336 346 4 353 344 332 321 306 292 286 257 231 224 218 217 206 210 212 199 210 219 207 217 233 221 211 201 202 212 204 204 239 256 260 263 263 262 260 248 245
233 230 222 231 231 223 236 310 3 8 357 356 351 336 318 316 295 268 243 228 224 225 236 225 228 219 203 205 208 218 213 208 206 213 225 227 218 248 264 285 291 288 275 263 264 266 266
223 223 217 222 223 209 211 4 16 13 8 9 16 22 8 343 303 268 246 228 230 229 226 231 230 221 203 195 199 199 203 208 207 215 237 247 242 244 269 290 323 263 269 263 271 276 274
210 219 213 211 213 201 195 58 26 17 16 19 24 31 21 358 320 289 254 247 234 235 226 230 223 220 217 192 195 196 212 219 224 225 223 225 226 208 229 214 282 278 276 285 278 282 279
205 211 207 206 203 198 193 86 34 22 22 23 26 30 25 18 4 309 288 266 249 238 236 233 226 199 203 211 199 197 195 186 207 216 225 225 225 219 204 225 243 276 287 308 313 280 275
204 205 204 201 202 198 195 100 43 31 27 25 27 29 38 39 17 6 323 269 252 232 236 229 227 227 221 205 209 193 215 206 206 203 209 211 222 222 228 239 263 264 276 284 273 281 325
201 201 203 201 197 197 201 136 53 34 27 25 27 30 39 38 38 38 28 6 265 236 223 217 219 222 214 220 212 201 207 211 220 209 209 209 205 221 229 233 264 229 268 285 292 322 316
189 194 201 199 197 202 205 181 64 30 25 21 25 29 43 48 50 44 32 25 30 210 206 209 201 211 211 210 173 192 196 198 216 211 218 210 210 210 218 255 242 266 322 326 311 309 284